Pagrindinis puslapis
METAR-TAF:

METAR-TAF

Oro uostai :

Deering, Aliaska, Jungtinės Amerikos Valstijos

platuma: 66-05N, ilguma: 162-45W, Aukštis: 5 m

Dabartinis oras

Ataskaita buvo paskelbta 20 minutes, ne 03:53 UTC
Ramus vėjas
Temperatūra -27°C
Drėgmė 56%
Slėgis 1018 hPa
Matomumas: 16.1 km
Giedras dangus

METAR: PADE 290353Z AUTO 00000KT 10SM CLR M27/M33 A3005 RMK AO2 SLP176 T12721328 TSNO $

Laikas: 19:13 (04:13 UTC)


TAF: trūkstamas

Orai ataskaitas ir orų prognozės (METAR, TAF).

turimą stotys yra geltonos ir raudonos taškus žemėlapyje.

Perkelti pele per norėdami pamatyti stoties vardą.

Tada spustelėkite, norėdami matyti oro stebėjimo ir prognozės.

Norėdami pakeisti žemėlapį: spustelėkite ant žalios mygtukų su juodo kryžiaus žemyn,; žalią mygtuką su brūkšneliu, jei norite nutolinti; arba žalių rodyklių gretimoms žemėlapius.


METAR-TAF: